Wind_Speed
20 14 13 20 16 7 20 16 14 18 19 18 8 0 17 16 24 21 25 24 26 26 26 27 27 26 24 25 26 26 25 23 24 20 18 16 15 16 14 16 12 14 7 6
15 12 14 14 17 11 14 15 1 12 19 22 15 4 8 6 14 23 24 26 26 26 26 27 29 27 26 27 27 27 26 26 22 18 14 17 16 16 19 19 16 17 12 8
16 15 15 9 13 13 16 14 16 7 17 25 15 10 17 2 25 6 14 22 24 27 26 29 29 29 29 28 29 28 28 27 30 23 20 16 19 20 19 15 21 18 13 10
11 11 10 10 14 14 14 13 15 15 10 13 9 4 4 10 21 6 9 14 20 24 24 29 29 30 30 29 30 29 28 27 28 28 22 19 18 15 12 14 15 16 8 11
13 5 7 10 10 11 12 14 11 14 14 16 17 7 8 12 11 13 14 15 16 24 26 27 28 30 29 30 30 29 30 32 27 25 27 20 21 15 12 7 14 14 9 15
12 10 4 12 12 12 11 12 15 13 12 11 16 6 11 6 18 11 9 12 14 20 27 25 27 28 28 30 30 30 31 30 31 26 28 23 18 19 12 9 10 13 6 12
17 15 10 4 12 18 14 14 10 8 9 9 20 10 9 23 16 8 6 3 8 16 29 28 29 28 30 31 32 30 32 31 31 31 27 28 24 19 15 15 8 12 7 11
10 6 6 6 5 11 12 14 7 10 8 8 6 3 13 6 16 9 9 7 4 8 31 30 30 28 31 30 33 32 33 33 31 30 31 26 26 26 23 17 11 15 14 17
9 3 6 2 5 8 9 10 16 13 9 9 7 1 15 15 13 10 12 8 10 14 25 29 28 27 31 30 32 33 34 35 30 29 29 28 25 25 23 19 15 17 12 13
14 8 2 11 11 16 7 8 9 6 8 8 8 12 8 12 10 10 12 9 7 10 14 26 26 27 30 31 31 34 35 36 32 27 28 29 28 26 24 20 20 19 15 13
11 10 15 8 6 8 5 11 12 13 9 9 8 5 12 10 8 9 11 10 6 4 10 32 35 30 28 28 29 33 34 34 33 29 25 24 25 24 22 25 23 23 19 17
14 9 9 14 15 10 6 7 9 8 6 11 10 6 19 6 11 10 10 8 5 4 7 10 10 15 24 28 25 26 32 32 25 23 24 25 22 21 21 21 24 23 24 25
11 8 10 12 5 6 3 6 9 10 11 12 9 3 11 8 10 8 10 9 3 2 5 5 12 8 12 8 27 28 30 30 24 21 21 22 21 20 23 23 23 25 22 24
5 12 14 12 15 14 11 10 10 11 11 13 13 6 11 9 10 10 9 6 4 1 5 3 3 9 6 7 27 21 25 24 24 21 19 20 21 19 19 22 23 24 26 24
5 11 12 14 16 17 15 14 15 14 13 14 17 18 13 12 6 10 4 4 2 4 7 3 2 15 17 24 17 18 16 16 18 22 17 12 12 15 16 19 21 24 25 29
9 12 12 14 15 15 16 14 18 18 15 16 15 17 14 15 4 6 7 2 6 7 5 2 6 7 11 10 10 16 19 20 22 28 20 5 7 12 19 18 20 20 24 28
13 11 11 14 14 15 14 15 10 7 8 10 11 12 11 5 4 7 5 12 6 1 7 5 6 12 13 13 15 20 26 27 29 31 17 18 30 36 26 24 22 20 25 28
14 12 9 11 12 14 14 4 3 7 9 10 10 9 11 8 6 9 13 17 16 11 2 3 11 15 16 15 13 20 23 29 25 17 22 31 29 20 23 22 19 18 21 31
11 9 8 8 11 14 16 5 2 2 7 12 13 13 12 8 6 21 24 13 5 9 6 8 6 4 16 18 9 10 19 26 16 13 17 17 18 19 14 11 16 15 28 27
6 9 7 9 11 12 7 8 7 6 6 12 13 15 19 20 8 7 26 15 16 24 12 14 17 12 8 13 16 18 17 16 14 14 14 14 14 12 9 6 8 12 12 14
9 7 9 9 10 9 4 6 4 6 4 9 9 12 15 12 14 16 10 5 15 17 15 19 18 17 19 19 16 15 17 20 18 16 16 16 15 16 15 11 8 8 10 12
10 8 8 10 11 12 9 4 3 5 4 9 10 11 14 17 18 15 14 8 7 16 20 15 15 23 10 19 23 16 17 14 17 17 17 16 16 15 11 14 14 13 15 17
10 12 8 7 6 3 2 6 5 5 7 11 13 13 16 20 21 20 15 15 17 16 16 21 22 22 22 19 12 14 13 12 17 17 16 16 15 14 14 15 16 16 14 13
12 11 9 9 8 11 16 12 10 11 9 8 12 17 19 20 22 23 21 20 19 20 22 24 24 20 18 9 15 29 38 30 36 24 21 21 20 19 18 17 15 17 16 19
15 1 3 7 11 17 17 11 7 7 10 14 16 16 16 17 18 20 23 23 23 23 22 23 26 28 21 19 11 18 22 27 30 28 24 20 17 15 18 21 21 20 23 24
13 12 8 10 12 11 9 11 13 15 16 19 16 16 17 19 22 23 23 23 23 23 23 24 24 26 31 30 24 14 16 18 22 20 20 21 19 20 17 17 21 24 23 26
Wind_Direction
254 244 261 274 319 313 201 281 327 11 338 324 288 335 147 166 169 182 187 193 195 201 201 204 199 198 201 195 195 195 197 202 214 209 206 192 204 211 221 227 218 235 257 242
249 267 260 271 293 340 298 288 341 46 323 293 276 345 143 116 189 178 189 190 200 196 202 197 197 202 199 198 194 197 196 199 202 207 218 199 208 227 228 221 208 220 238 214
270 286 318 326 317 295 282 285 286 170 229 255 255 60 73 354 341 202 195 198 194 196 199 191 198 199 197 200 195 197 200 205 205 200 213 210 220 228 228 231 218 209 215 207
258 285 305 320 285 272 281 324 340 324 308 280 246 124 2 140 263 306 214 198 194 195 198 192 196 196 201 199 197 201 207 207 214 207 209 210 221 234 248 254 238 214 220 201
278 199 289 266 283 1 302 310 317 290 280 282 273 269 124 188 271 264 203 199 210 189 193 198 194 197 203 197 195 202 211 208 211 209 196 216 219 228 238 254 255 250 227 209
263 281 246 287 328 281 276 277 261 248 246 262 266 261 125 189 228 186 148 196 194 201 188 198 188 195 197 198 198 200 209 215 213 216 206 200 219 233 220 217 231 227 249 221
215 220 210 197 276 272 245 264 279 240 228 243 14 66 164 217 201 84 109 283 228 202 181 187 184 191 191 199 194 199 207 217 220 211 220 214 217 234 241 230 232 205 217 232
296 163 159 143 313 348 326 310 311 327 291 325 121 262 141 229 95 68 78 327 347 271 183 183 183 186 188 197 196 198 207 218 223 219 222 226 221 223 233 234 231 222 255 204
341 74 138 193 351 315 327 303 355 314 312 303 306 109 128 87 78 68 59 32 4 303 181 176 186 185 188 194 199 200 206 216 225 231 225 231 234 229 232 231 220 229 242 241
318 294 238 142 221 227 227 342 308 308 283 288 2 71 86 65 51 64 61 41 24 333 187 170 188 186 190 193 201 202 205 217 223 231 235 233 236 239 229 223 218 225 209 237
303 294 301 290 275 13 336 311 312 313 282 314 289 95 117 115 82 55 71 60 58 343 205 179 182 186 190 193 198 199 200 213 218 226 230 231 233 237 236 219 224 226 221 218
315 317 289 290 285 94 339 297 270 285 290 292 308 53 356 11 87 80 88 80 80 26 330 322 120 162 179 188 195 201 200 209 214 215 216 224 232 227 239 231 220 230 233 222
345 328 327 305 97 109 218 0 351 306 289 289 288 126 236 141 98 61 61 91 83 305 254 298 21 62 118 298 302 200 204 202 206 209 213 213 232 225 224 242 222 230 238 230
315 272 266 284 319 329 315 311 309 304 303 311 304 160 73 280 128 115 81 53 89 175 198 203 136 98 179 210 247 189 196 200 200 203 207 212 215 227 226 227 244 229 237 242
273 280 296 304 312 315 315 307 299 289 283 285 299 312 315 336 87 99 95 120 158 192 212 185 209 129 154 187 189 200 195 200 201 197 181 165 195 225 236 230 235 248 240 240
265 283 272 273 274 275 278 288 278 272 268 276 276 282 287 294 118 151 158 207 201 193 247 179 127 152 165 172 171 183 185 197 185 171 163 136 156 249 235 237 231 240 247 245
282 288 298 294 311 306 289 275 288 327 322 324 301 309 295 289 331 327 219 169 259 195 178 200 180 163 167 172 179 191 186 178 177 185 200 240 248 246 236 225 229 239 250 249
274 274 278 274 280 269 277 312 334 307 300 283 306 318 328 329 3 326 352 167 188 177 241 236 227 170 169 175 180 192 201 193 186 241 242 234 235 239 240 239 251 257 280 256
251 264 275 279 266 264 270 13 9 35 345 2 348 356 360 341 291 29 29 35 349 105 212 239 233 144 150 152 174 159 198 209 214 202 212 226 225 225 228 245 256 219 258 263
254 276 259 266 288 288 348 72 23 357 270 21 360 356 359 352 18 29 360 352 7 326 229 232 215 188 169 171 178 171 169 173 173 176 173 174 173 175 176 192 210 236 268 268
216 222 269 262 254 267 25 59 16 268 44 357 11 355 355 353 5 9 33 6 169 287 333 277 215 193 205 196 196 198 195 181 176 183 178 182 189 192 194 210 229 253 276 286
270 264 238 245 256 261 41 327 323 48 14 1 343 336 327 324 325 334 340 338 317 306 305 291 298 278 219 206 181 196 207 205 198 194 201 207 206 212 203 226 240 259 282 287
247 247 276 306 335 39 350 9 44 354 331 320 328 323 321 313 313 315 310 309 315 313 302 297 295 305 309 253 271 223 267 197 229 216 213 227 229 238 248 250 268 277 285 271
255 230 234 256 272 332 322 321 315 298 299 323 312 312 310 308 308 312 317 313 308 304 302 299 302 299 291 262 235 214 226 211 237 232 229 230 231 238 250 263 265 270 270 261
276 278 287 267 273 280 274 289 343 334 310 305 300 301 302 304 309 310 307 308 309 308 304 300 298 303 290 270 269 201 202 210 225 236 236 234 236 241 252 259 265 255 259 258
264 274 265 269 275 286 313 317 312 308 303 299 298 295 299 302 301 300 300 302 307 309 310 308 308 302 293 280 268 273 242 230 232 233 225 229 237 250 246 255 267 265 270 276
Height
1472 1471 1470 1456 1450 1452 1465 1458 1454 1459 1449 1449 1444 1443 1446 1455 1460 1468 1476 1483 1488 1494 1500 1505 1510 1514 1519 1522 1527 1530 1535 1538 1541 1546 1550 1553 1555 1556 1556 1557 1559 1561 1563 1566
1472 1470 1456 1453 1451 1454 1457 1459 1463 1469 1460 1456 1442 1444 1439 1457 1457 1457 1465 1473 1480 1486 1492 1499 1504 1510 1515 1519 1523 1526 1532 1536 1539 1543 1547 1550 1552 1552 1550 1549 1556 1557 1558 1563
1470 1459 1452 1455 1457 1462 1456 1456 1452 1466 1454 1448 1438 1459 1463 1476 1461 1458 1459 1464 1471 1478 1485 1492 1499 1505 1510 1515 1518 1522 1529 1533 1537 1542 1546 1548 1548 1548 1547 1553 1544 1559 1553 1559
1461 1456 1456 1460 1462 1454 1461 1443 1445 1447 1451 1464 1433 1481 1477 1474 1472 1452 1457 1462 1466 1473 1480 1486 1493 1499 1506 1511 1515 1519 1525 1529 1533 1540 1543 1544 1544 1547 1546 1551 1557 1558 1546 1554
1466 1457 1460 1462 1456 1451 1461 1447 1450 1451 1454 1451 1442 1448 1484 1482 1475 1460 1454 1458 1460 1466 1474 1480 1487 1495 1502 1507 1512 1517 1520 1525 1530 1535 1538 1541 1543 1547 1549 1551 1553 1555 1549 1551
1460 1456 1459 1459 1453 1453 1448 1450 1446 1444 1449 1470 1441 1447 1493 1478 1462 1448 1447 1452 1456 1460 1467 1476 1482 1491 1498 1504 1508 1513 1517 1521 1527 1531 1536 1537 1539 1541 1551 1553 1547 1554 1550 1550
1452 1451 1451 1456 1460 1446 1445 1448 1467 1472 1469 1465 1433 1457 1473 1448 1445 1444 1447 1451 1452 1456 1461 1469 1476 1485 1491 1498 1502 1508 1512 1516 1521 1527 1530 1534 1536 1534 1539 1546 1548 1548 1547 1552
1460 1474 1453 1451 1455 1459 1453 1452 1468 1493 1482 1470 1438 1460 1455 1447 1442 1447 1445 1449 1450 1452 1453 1463 1472 1480 1486 1493 1497 1502 1506 1511 1516 1521 1526 1530 1534 1536 1537 1538 1541 1544 1545 1546
1464 1463 1449 1452 1455 1457 1457 1462 1447 1459 1446 1458 1444 1431 1434 1437 1443 1446 1447 1449 1450 1447 1448 1459 1469 1476 1481 1488 1493 1497 1502 1505 1511 1515 1521 1525 1529 1532 1534 1536 1540 1543 1546 1545
1460 1475 1446 1451 1450 1447 1454 1451 1468 1457 1486 1490 1468 1461 1468 1453 1450 1447 1450 1451 1452 1449 1449 1456 1465 1471 1476 1481 1488 1493 1497 1500 1506 1511 1515 1519 1523 1526 1530 1533 1536 1539 1543 1544
1462 1464 1461 1447 1450 1457 1457 1461 1457 1453 1455 1476 1477 1472 1440 1447 1448 1450 1452 1454 1453 1451 1450 1445 1441 1458 1470 1480 1486 1491 1493 1496 1501 1506 1509 1513 1517 1519 1523 1527 1530 1533 1537 1539
1464 1466 1476 1464 1443 1446 1455 1460 1460 1472 1474 1456 1458 1488 1451 1449 1450 1451 1455 1455 1456 1454 1452 1440 1433 1448 1467 1477 1484 1493 1496 1494 1496 1501 1506 1509 1512 1516 1518 1521 1525 1528 1530 1534
1473 1476 1487 1470 1452 1451 1458 1453 1454 1454 1453 1466 1475 1476 1456 1448 1454 1458 1458 1459 1460 1458 1457 1453 1453 1461 1464 1474 1481 1486 1494 1495 1497 1498 1503 1508 1510 1513 1516 1518 1521 1523 1525 1528
1481 1479 1482 1488 1473 1460 1465 1460 1458 1461 1471 1463 1456 1466 1468 1466 1450 1455 1459 1461 1462 1462 1461 1463 1465 1464 1459 1473 1483 1484 1490 1490 1494 1498 1500 1504 1509 1511 1513 1516 1517 1521 1522 1523
1476 1482 1473 1468 1464 1462 1463 1464 1462 1465 1463 1473 1461 1457 1449 1445 1448 1452 1457 1459 1461 1461 1461 1465 1467 1470 1468 1477 1478 1480 1484 1487 1492 1496 1496 1501 1507 1513 1514 1514 1515 1517 1520 1519
1468 1478 1472 1475 1465 1463 1464 1459 1456 1454 1454 1455 1454 1455 1444 1444 1447 1451 1455 1459 1460 1461 1461 1462 1467 1469 1472 1472 1473 1476 1482 1481 1487 1487 1488 1502 1505 1508 1513 1514 1511 1515 1518 1518
1471 1473 1477 1486 1470 1469 1476 1455 1449 1450 1446 1449 1459 1447 1440 1442 1446 1450 1454 1457 1463 1463 1465 1464 1465 1467 1469 1471 1474 1477 1480 1480 1483 1482 1486 1485 1496 1496 1506 1504 1503 1507 1510 1512
1467 1470 1473 1483 1476 1498 1456 1442 1447 1453 1453 1449 1445 1444 1443 1445 1448 1453 1450 1453 1454 1457 1464 1466 1463 1464 1465 1470 1473 1474 1475 1477 1479 1480 1480 1483 1489 1497 1502 1495 1494 1493 1497 1504
1458 1465 1476 1484 1481 1466 1454 1447 1447 1453 1457 1450 1451 1447 1447 1448 1451 1459 1457 1458 1446 1438 1464 1466 1467 1464 1460 1459 1462 1466 1470 1476 1479 1478 1478 1480 1486 1493 1495 1492 1486 1495 1496 1498
1461 1462 1472 1477 1488 1490 1454 1450 1453 1453 1469 1460 1459 1457 1458 1457 1459 1467 1462 1461 1458 1463 1466 1465 1460 1461 1465 1464 1462 1458 1459 1466 1471 1474 1477 1481 1487 1489 1487 1489 1491 1497 1498 1495
1466 1469 1478 1473 1477 1466 1449 1452 1456 1476 1479 1466 1466 1466 1466 1467 1473 1473 1470 1470 1470 1475 1465 1455 1445 1453 1462 1466 1470 1473 1470 1464 1466 1473 1474 1475 1480 1484 1485 1486 1489 1491 1492 1489
1465 1469 1471 1468 1474 1481 1458 1459 1467 1468 1468 1470 1471 1470 1470 1471 1472 1474 1473 1474 1474 1469 1464 1458 1451 1456 1452 1450 1443 1469 1475 1476 1469 1468 1475 1477 1474 1478 1482 1483 1483 1484 1484 1483
1465 1460 1465 1465 1463 1459 1460 1461 1464 1467 1470 1472 1472 1472 1471 1470 1469 1471 1473 1472 1470 1468 1465 1459 1459 1456 1457 1453 1439 1466 1462 1465 1473 1469 1469 1475 1473 1470 1473 1476 1476 1477 1477 1477
1450 1451 1458 1463 1458 1460 1462 1463 1466 1468 1469 1472 1474 1474 1473 1471 1468 1466 1467 1468 1468 1467 1463 1459 1455 1459 1458 1460 1462 1457 1462 1469 1475 1463 1466 1470 1470 1467 1469 1471 1471 1470 1471 1470
1455 1453 1456 1458 1461 1463 1463 1464 1465 1467 1470 1472 1473 1473 1472 1471 1469 1467 1464 1463 1462 1461 1459 1458 1453 1447 1454 1458 1461 1460 1460 1460 1460 1457 1461 1463 1464 1462 1463 1464 1464 1465 1465 1466
1452 1452 1455 1458 1456 1459 1462 1465 1467 1469 1470 1471 1470 1470 1470 1469 1467 1465 1463 1461 1459 1457 1455 1452 1450 1447 1442 1441 1445 1449 1449 1448 1448 1451 1455 1456 1455 1455 1457 1458 1458 1458 1457 1457